Location: Nebula Knoll Observatory
(43.6666°N, 71.0000°W)
Time: 01:36:04
(UTC-05:00)

Daily predictions for brighter satellites

Satellite Brightness Start Highest point End
(mag) Time Altitude Azimuth Time Altitude Azimuth Time Altitude Azimuth
CZ-4B DEB 4.5 03:49:03 10° NNE 03:54:36 67° ESE 03:55:12 62° SE
Cosmos 2237 Rocket 3.7 03:57:43 26° N 03:57:43 26° N 04:00:14 10° NNE
Cosmos 2333 Rocket 4.1 04:06:33 18° N 04:06:33 18° N 04:08:14 10° N
DELTA 2 R/B (1) 3.9 04:07:47 56° SSE 04:07:47 56° SSE 04:12:52 10° ESE
Cosmos 2219 Rocket 4.2 04:20:20 14° N 04:20:20 14° N 04:21:20 10° N
USA 267 4.5 04:11:43 10° ENE 04:17:04 28° N 04:18:50 25° NNW
Meteor 2-3 Rocket 4.1 04:12:10 10° S 04:17:51 64° E 04:23:30 10° NNE
Atlas Centaur 2 4.1 04:16:10 26° SSW 04:18:02 28° S 04:24:53 10° SE
SL-08 R/B 4.4 04:19:44 31° NNW 04:22:57 68° W 04:29:17 10° S
Okean-O 4.3 04:19:34 10° NNE 04:23:38 34° E 04:27:40 10° SSE
Lacrosse 5 rocket 1.8 04:23:56 63° SSE 04:24:19 66° SE 04:28:58 10° NE
SL-16 R/B 2.1 04:29:35 60° WSW 04:30:23 68° WNW 04:36:05 10° NNE
NOSS 3-1 (C) 4.2 04:26:35 25° NNW 04:31:29 70° NE 04:39:52 10° SE
Cosmos 1992 Rocket 4.1 04:27:20 10° SSW 04:32:33 75° ESE 04:37:47 10° NNE
Cosmos 2123 Rocket 3.9 04:27:12 10° SSW 04:33:22 67° W 04:39:39 10° N
Cosmos 1725 Rocket 3.8 04:27:18 10° NNW 04:33:26 65° W 04:39:31 10° S
Cosmos 1606 3.9 04:34:39 14° N 04:37:39 41° ENE 04:41:16 10° SSE
DEBRIS 3.2 04:38:24 44° SE 04:38:24 44° SE 04:40:00 10° SE
NOAA 6 4.4 04:40:09 10° NNE 04:45:15 63° ESE 04:50:18 10° S
Okean O Rocket 4.1 04:41:15 10° N 04:41:20 11° N 04:41:20 11° N
Cosmos 1782 3.4 04:45:20 11° N 04:49:11 56° E 04:53:03 10° SSE
CZ-4B R/B 3.4 04:44:33 10° N 04:49:59 49° WNW 04:55:24 10° SW
Meteor 1-26 Rocket 4.3 04:48:03 27° NNW 04:50:52 52° W 04:56:18 10° S
CZ-2C R/B 4.1 04:46:32 10° NNE 04:51:20 37° E 04:56:02 10° SSE
Cosmos 1503 Rocket 4.2 04:51:37 43° W 04:52:12 45° WSW 04:57:06 10° S
USA 229 DEB 3.9 04:49:12 32° WNW 04:52:29 55° WSW 04:59:35 10° SSE
USA 229 3.9 04:49:15 32° WNW 04:52:35 56° WSW 04:59:41 10° SSE
CZ-2C R/B 3.7 04:49:13 10° S 04:53:36 51° W 04:54:19 46° WNW
Cosmos 2297 4.3 04:54:23 34° WSW 04:54:23 34° WSW 04:59:28 10° SSW
Cosmos 2369 Rocket 3.0 04:49:08 10° NNW 04:54:33 48° ENE 04:59:56 10° SE
NOSS 3-1 (A) 4.2 04:49:47 17° NNW 04:55:58 73° NE 05:04:23 10° SE
COSMO-SKYMED 1 2.5 04:51:40 10° SSE 04:56:00 84° ENE 05:00:22 10° NNW
Cosmos 1447 Rocket 4.4 04:49:56 10° S 04:56:16 80° W 05:02:35 10° N
Cosmos 2084 Rocket 3.4 04:57:56 47° WSW 04:57:56 47° WSW 05:01:38 10° SSE
Cosmos 1408 2.6 04:56:32 10° S 05:00:16 82° E 05:04:01 10° N
IRS-1C Rocket 4.3 04:55:48 10° N 05:00:45 43° WNW 05:05:42 10° SW
PAYLOAD A 4.5 04:57:30 10° NNE 05:02:43 67° ESE 05:08:04 10° S
Cosmos 968 Rocket 3.4 04:59:38 13° NNW 05:04:19 87° WSW 05:09:35 10° SSE
SL-8 R/B 4.3 05:01:30 16° SW 05:05:10 54° SSE 05:09:49 10° ENE
IDEFIX/ARIANE 42P 2.9 05:01:26 10° NNE 05:06:37 67° ESE 05:11:46 10° S
Cosmos 405 Rocket 3.3 05:03:51 10° N 05:07:30 54° ENE 05:11:10 10° SSE
PSLV R/B 4.0 05:11:52 28° SW 05:13:00 41° SSE 05:16:03 10° E
Cosmos 1862 3.9 05:19:30 10° S 05:23:24 60° E 05:27:18 10° NNE
Lacrosse 4 Rocket 4.5 05:20:29 10° SSE 05:23:38 20° ESE 05:26:45 10° ENE
USA 215 4.4 05:20:25 10° ENE 05:26:39 45° SE 05:32:49 10° SSW
EO 1 Del DPAF 3.7 05:23:13 10° SSW 05:26:48 38° W 05:29:31 16° NW
Cosmos 1464 Rocket 4.0 05:21:24 10° N 05:27:42 89° W 05:34:02 10° S
Meteor 2-6 Rocket 4.3 05:24:05 10° NNW 05:29:54 71° W 05:35:48 10° S
Okean 1-7 3.1 05:28:21 10° NNW 05:32:40 57° W 05:36:56 10° S
Cosmos 1943 Rocket 2.7 05:27:26 10° NNW 05:33:05 61° ENE 05:38:40 10° SE
MSX 4.0 05:31:49 10° NNE 05:37:38 79° ESE 05:43:24 10° S
Cosmos 1943 3.3 05:33:48 10° SSW 05:39:30 84° ESE 05:45:13 10° NNE
Cosmos 2237 Rocket 4.0 05:39:35 11° NW 05:40:01 12° NW 05:41:56 10° NNW
SKYMED 2 4.4 05:40:23 10° SSW 05:44:11 29° W 05:48:00 10° NW
CZ-4 R/B 3.5 05:40:58 10° NE 05:44:28 30° E 05:48:00 10° SSE
Aureole 3 3.2 05:41:43 10° S 05:44:45 60° E 05:47:42 10° NNE
Cosmos 1733 Rocket 3.8 05:42:59 10° S 05:47:12 56° E 05:51:29 10° NNE
ATLAS 5 CENTAUR R/B 1.8 05:44:29 10° SSW 05:49:04 83° SE 05:54:08 10° NE
Gbstr 26 Del rocket 4.2 05:46:28 13° NW 05:49:30 26° N 05:52:51 10° ENE
Cosmos 1825 3.1 05:48:40 10° SW 05:51:51 25° WNW 05:55:03 10° NNW
Abrixas rocket 2.9 05:49:49 15° NW 05:52:13 40° NNE 05:55:17 10° E
Cosmos 2263 4.2 05:47:38 10° NNW 05:53:25 83° WSW 05:59:12 10° SSE
BREEZE-M DEB (TANK) 3.1 05:50:45 14° WNW 05:53:47 73° NNE 05:58:28 10° E
Meteor 1-27 Rocket 3.8 05:49:28 10° NNW 05:55:18 68° W 06:00:59 10° S
Cosmos 2221 Rocket 4.3 05:54:32 10° NNW 05:58:33 34° W 06:02:35 10° SSW
USA 267 4.1 05:52:59 10° E 05:59:04 43° NNE 06:05:10 10° NW
Okean-O 3.7 05:56:22 10° NNW 05:59:57 24° WNW 06:03:31 10° WSW
Lacrosse 5 rocket 2.6 05:59:52 10° W 06:03:56 29° NNW 06:08:01 10° NE
SJ-12 4.0 06:00:01 10° N 06:04:04 55° WNW 06:08:03 10° SSW
Genesis I 3.5 06:03:54 10° SSW 06:07:46 74° ESE 06:11:44 10° NE
Cosmos 1484 Rocket 2.9 06:03:46 10° NNE 06:07:49 90° ESE 06:11:50 10° SSW
Cosmos 1441 Rocket 4.1 06:09:04 10° NNW 06:12:18 27° W 06:15:30 10° SSW
Cosmos 1606 4.5 06:11:06 10° NW 06:13:01 14° W 06:14:56 10° WSW
SL-16 R/B 3.9 06:12:54 10° WNW 06:15:39 14° NW 06:18:24 10° NNW
